Location: Briis
(48.6240°N, 2.1211°E)
Time: 00:41:21
(UTC+00:00)

CZ-2D R/B - Pass Details

Date: 25 September 2020
Orbit: 791 x 846 km, 98.7° (Epoch: 23 October)

Event Time Altitude Azimuth Distance (km) Brightness Sun altitude
Rises 01:28:35 0° 15° (NNE) 3,343 6.2 -37.2°
Reaches altitude 10° 01:30:58 10° 18° (NNE) 2,400 5.2 -37.0°
Enters shadow 01:33:36 30° 24° (NNE) 1,413 3.8 -36.8°
